EW8073 Weather Reports


time (UTC)temp
C
wind
direction
speed
KPH
gust
KPH
rain 1hr
cm
rain 24hr
cm
rain mn
cm
humidity
%
barometer
mb
20260509135635 11 211 0.0 0.0 0.00 0.00 0.00 65 1012.9
20260509135135 11 211 0.0 0.0 0.00 0.00 0.00 64 1012.9
20260509134636 11 211 0.0 0.0 0.00 0.00 0.00 64 1012.6
20260509134128 11 211 0.0 0.0 0.00 0.00 0.00 64 1012.6
20260509133623 11 211 0.0 0.0 0.00 0.00 0.00 64 1012.6
20260509133116 10 211 0.0 0.0 0.00 0.00 0.00 64 1012.6
20260509132611 10 211 0.0 0.0 0.00 0.00 0.00 64 1012.6
20260509132103 10 211 0.0 0.0 0.00 0.00 0.00 64 1012.5
20260509131050 10 211 0.0 0.0 0.00 0.00 0.00 64 1012.3
20260509130544 10 211 0.0 0.0 0.00 0.00 0.00 64 1012.3
20260509130040 10 211 0.0 0.0 0.00 0.00 0.00 63 1012.0
20260509125534 10 211 0.0 0.0 0.00 0.00 0.00 63 1011.9
20260509125034 10 211 0.0 0.0 0.00 0.00 0.00 63 1011.8
20260509124531 9 211 0.0 0.0 0.00 0.00 0.00 63 1011.8
20260509123527 9 211 0.0 0.0 0.00 0.00 0.00 63 1011.7
20260509122523 9 211 0.0 0.0 0.00 0.00 0.00 64 1011.6
20260509122025 9 211 0.0 0.0 0.00 0.00 0.00 64 1011.6
20260509121521 9 211 0.0 0.0 0.00 0.00 0.00 64 1011.6
20260509121021 9 211 0.0 0.0 0.00 0.00 0.00 64 1011.6
20260509120521 9 211 0.0 0.0 0.00 0.00 0.00 64 1011.7
20260509120021 9 211 0.0 0.0 0.00 0.00 0.00 64 1011.5
20260509115521 9 211 0.0 0.0 0.00 0.00 0.00 64 1011.3
20260509115019 9 211 0.0 0.0 0.00 0.00 0.00 64 1011.2
20260509114519 9 211 0.0 0.0 0.00 0.00 0.00 64 1011.2
20260509114020 9 211 0.0 0.0 0.00 0.00 0.00 64 1011.1
20260509113519 9 211 0.0 0.0 0.00 0.00 0.00 65 1011.0
20260509113019 9 211 0.0 0.0 0.00 0.00 0.00 65 1011.1
20260509112517 9 211 0.0 0.0 0.00 0.00 0.00 65 1011.0
20260509112017 9 211 0.0 0.0 0.00 0.00 0.00 65 1011.0
20260509111510 9 211 0.0 0.0 0.00 0.00 0.00 66 1010.9
20260509111005 9 211 0.0 0.0 0.00 0.00 0.00 66 1010.9
20260509110459 9 211 0.0 0.0 0.00 0.00 0.00 66 1010.9
20260509104940 9 211 0.0 0.0 0.00 0.00 0.00 66 1010.8
20260509104434 9 211 0.0 0.0 0.00 0.00 0.00 66 1010.9
20260509103929 9 211 0.0 0.0 0.00 0.00 0.00 66 1010.9
20260509103423 10 211 0.0 0.0 0.00 0.00 0.00 66 1010.9
20260509102920 10 211 0.0 0.0 0.00 0.00 0.00 66 1010.9
20260509102410 10 211 0.0 0.0 0.00 0.00 0.00 66 1010.8
20260509101904 10 211 0.0 0.0 0.00 0.00 0.00 66 1010.8
20260509101359 10 211 0.0 0.0 0.00 0.00 0.00 65 1010.9
20260509100852 10 211 0.0 0.0 0.00 0.00 0.00 65 1011.0
20260509100348 10 211 0.0 0.0 0.00 0.00 0.00 65 1011.1
20260509095841 10 211 0.0 0.0 0.00 0.00 0.00 64 1011.1
20260509094830 10 211 0.0 0.0 0.00 0.00 0.00 64 1011.1
20260509093816 10 211 0.0 0.0 0.00 0.00 0.00 64 1010.9
20260509093310 10 211 0.0 0.0 0.00 0.00 0.00 64 1010.9
20260509092300 10 211 0.0 0.0 0.00 0.00 0.00 64 1010.9
20260509091753 11 211 0.0 0.0 0.00 0.00 0.00 64 1010.8
20260509091246 11 211 0.0 0.0 0.00 0.00 0.00 63 1010.6
20260509090740 11 211 0.0 0.0 0.00 0.00 0.00 63 1010.6
20260509090236 11 208 0.0 0.0 0.00 0.00 0.00 63 1010.6
20260509085728 11 208 0.0 0.0 0.00 0.00 0.00 63 1010.5
20260509084716 11 208 0.0 0.0 0.00 0.00 0.00 62 1010.6
20260509084210 11 208 0.0 0.0 0.00 0.00 0.00 61 1010.6
20260509083705 12 208 0.0 0.0 0.00 0.00 0.00 61 1010.6
20260509082654 12 208 0.0 0.0 0.00 0.00 0.00 60 1010.6
20260509082147 12 208 0.0 0.0 0.00 0.00 0.00 60 1010.6
20260509081640 12 208 0.0 0.0 0.00 0.00 0.00 60 1010.6
20260509081135 12 208 0.0 0.0 0.00 0.00 0.00 59 1010.5
20260509075617 12 208 0.0 0.0 0.00 0.00 0.00 59 1010.8
20260509075111 12 208 0.0 0.0 0.00 0.00 0.00 58 1010.8
20260509074605 13 208 0.0 0.0 0.00 0.00 0.00 58 1010.8
20260509074059 13 207 0.0 0.0 0.00 0.00 0.00 57 1010.9
20260509073553 13 207 0.0 0.0 0.00 0.00 0.00 57 1010.8
20260509073048 13 207 0.0 0.0 0.00 0.00 0.00 57 1010.8
20260509072540 13 207 0.0 0.0 0.00 0.00 0.00 58 1010.8
20260509072034 12 204 0.0 0.0 0.00 0.00 0.00 58 1010.8
20260509071528 12 204 0.0 0.0 0.00 0.00 0.00 58 1010.8
20260509071023 12 202 0.0 0.0 0.00 0.00 0.00 58 1010.9
20260509070021 12 139 0.0 0.0 0.00 0.00 0.00 59 1010.9
20260509065521 12 138 0.0 0.0 0.00 0.00 0.00 59 1011.0
20260509065023 12 138 0.0 0.0 0.00 0.00 0.00 59 1011.1
20260509064519 12 135 0.0 0.0 0.00 0.00 0.00 59 1011.1
20260509064017 12 135 0.0 0.0 0.00 0.00 0.00 59 1011.1
20260509063516 12 135 0.0 0.0 0.00 0.00 0.00 59 1011.2
20260509063017 12 68 0.0 0.0 0.00 0.00 0.00 59 1011.2
20260509062515 12 68 0.0 0.0 0.00 0.00 0.00 59 1011.2
20260509062014 12 67 0.0 0.0 0.00 0.00 0.00 59 1011.3
20260509061515 12 67 0.0 0.0 0.00 0.00 0.00 59 1011.5
20260509061012 12 67 0.0 0.0 0.00 0.00 0.00 58 1011.5
20260509060513 12 67 0.0 0.0 0.00 0.00 0.00 58 1011.6
20260509055505 12 67 0.0 0.0 0.00 0.00 0.00 58 1011.6
20260509054959 12 67 0.0 0.0 0.00 0.00 0.00 58 1011.6
20260509054454 12 67 0.0 0.0 0.00 0.00 0.00 58 1011.7
20260509053947 12 67 0.0 0.0 0.00 0.00 0.00 58 1011.8
20260509052934 13 67 0.0 0.0 0.00 0.00 0.00 58 1011.8
20260509051924 13 67 0.0 0.0 0.00 0.00 0.00 58 1012.0
20260509051416 13 67 0.0 0.0 0.00 0.00 0.00 58 1012.2
20260509050911 13 67 0.0 0.0 0.00 0.00 0.00 58 1012.2
20260509050405 13 67 0.0 0.0 0.00 0.00 0.00 58 1012.3
20260509045405 13 67 0.0 0.0 0.00 0.00 0.00 57 1012.3
20260509043902 13 67 0.0 0.0 0.00 0.00 0.00 55 1012.6
20260509043403 13 67 0.0 0.0 0.00 0.00 0.00 54 1012.7
20260509042903 14 67 0.0 0.0 0.00 0.00 0.00 54 1012.9
20260509042358 14 67 0.0 0.0 0.00 0.00 0.00 54 1012.9
20260509041859 14 67 0.0 0.0 0.00 0.00 0.00 53 1013.0
20260509041359 14 67 0.0 0.0 0.00 0.00 0.00 53 1013.0
20260509040858 14 67 0.0 0.0 0.00 0.00 0.00 52 1013.0
20260509040358 15 67 0.0 0.0 0.00 0.00 0.00 52 1013.0
20260509035900 15 67 0.0 0.0 0.00 0.00 0.00 51 1013.1
20260509034856 15 67 0.0 0.0 0.00 0.00 0.00 49 1013.1
20260509034356 15 67 0.0 0.0 0.00 0.00 0.00 49 1013.1
20260509033858 15 67 0.0 0.0 0.00 0.00 0.00 48 1013.1
20260509033359 15 67 0.0 0.0 0.00 0.00 0.00 48 1013.1
20260509031841 16 66 0.0 0.0 0.00 0.00 0.00 46 1013.0
20260509031335 16 66 0.0 0.0 0.00 0.00 0.00 46 1013.0
20260509030829 16 66 0.0 0.0 0.00 0.00 0.00 46 1013.0
20260509030325 16 66 0.0 0.0 0.00 0.00 0.00 45 1013.0
20260509025817 16 66 0.0 0.0 0.00 0.00 0.00 45 1012.9
20260509025312 16 66 0.0 0.0 0.00 0.00 0.00 44 1012.7
20260509024301 16 66 0.0 0.0 0.00 0.00 0.00 43 1012.7
20260509023800 17 66 0.0 0.0 0.00 0.00 0.00 43 1012.7
20260509023259 17 66 0.0 0.0 0.00 0.00 0.00 42 1012.6
20260509022259 17 65 0.0 0.0 0.00 0.00 0.00 42 1012.5
20260509021759 17 66 0.0 0.0 0.00 0.00 0.00 42 1012.5
20260509020757 18 65 0.0 0.0 0.00 0.00 0.00 41 1012.4
20260509020254 18 65 0.0 0.0 0.00 0.00 0.00 40 1012.4
20260509015251 18 65 0.0 0.0 0.00 0.00 0.00 39 1012.3
20260509014750 18 65 0.0 0.0 0.00 0.00 0.00 39 1012.3
20260509014249 18 65 0.0 0.0 0.00 0.00 0.00 39 1012.3
20260509013747 18 67 0.0 0.0 0.00 0.00 0.00 39 1012.3
20260509013245 19 67 0.0 0.0 0.00 0.00 0.00 38 1012.2
20260509012745 19 67 0.0 0.0 0.00 0.00 0.00 37 1012.2
20260509012244 19 64 0.0 0.0 0.00 0.00 0.00 38 1012.2
20260509011741 19 65 0.0 0.0 0.00 0.00 0.00 37 1012.2
20260509011240 19 65 0.0 0.0 0.00 0.00 0.00 38 1012.2
20260509010740 19 65 0.0 0.0 0.00 0.00 0.00 37 1012.2
20260509010241 20 65 0.0 0.0 0.00 0.00 0.00 37 1012.2
20260509005740 20 65 0.0 0.0 0.00 0.00 0.00 37 1012.0
20260509005244 20 64 0.0 0.0 0.00 0.00 0.00 37 1012.2
20260509004743 20 63 0.0 0.0 0.00 0.00 0.00 36 1012.0
20260509003743 20 63 0.0 0.0 0.00 0.00 0.00 36 1012.0
20260509003241 20 63 0.0 0.0 0.00 0.00 0.00 36 1012.0
20260509002240 20 61 0.0 0.0 0.00 0.00 0.00 34 1012.0
20260509001740 21 61 0.0 0.0 0.00 0.00 0.00 35 1012.0
20260509000741 21 59 0.0 0.0 0.00 0.00 0.00 34 1012.0
20260508235740 21 58 0.0 3.2 0.00 0.00 0.00 34 1012.2
20260508235240 21 58 1.6 4.8 0.00 0.00 0.00 34 1012.2
20260508234741 21 59 1.6 6.4 0.00 0.00 0.00 33 1012.2
20260508234240 21 61 1.6 8.0 0.00 0.00 0.00 33 1012.3
20260508233740 21 49 1.6 8.0 0.00 0.00 0.00 35 1012.3
20260508233240 21 79 1.6 6.4 0.00 0.00 0.00 34 1012.3
20260508232741 21 88 1.6 4.8 0.00 0.00 0.00 34 1012.3
20260508232240 22 88 1.6 4.8 0.00 0.00 0.00 35 1012.3
20260508231741 22 88 1.6 4.8 0.00 0.00 0.00 34 1012.2
20260508231238 22 89 1.6 9.7 0.00 0.00 0.00 34 1012.3
20260508224724 22 271 0.0 0.0 0.00 0.00 0.00 35 1012.2
20260508224218 22 271 0.0 0.0 0.00 0.00 0.00 34 1012.3
20260508223715 22 271 0.0 0.0 0.00 0.00 0.00 34 1012.4
20260508223214 23 281 0.0 0.0 0.00 0.00 0.00 33 1012.4
20260508222714 22 281 0.0 4.8 0.00 0.00 0.00 36 1012.4
20260508222212 22 281 1.6 6.4 0.00 0.00 0.00 35 1012.4
20260508221712 21 280 3.2 6.4 0.00 0.00 0.00 33 1012.5
20260508221211 22 280 3.2 9.7 0.00 0.00 0.00 34 1012.6
20260508220710 22 13 3.2 9.7 0.00 0.00 0.00 34 1012.6
20260508220211 22 63 3.2 8.0 0.00 0.00 0.00 35 1012.6
20260508215209 22 88 0.0 4.8 0.00 0.00 0.00 35 1012.7
20260508214708 22 62 1.6 6.4 0.00 0.00 0.00 35 1012.7
20260508213206 23 243 0.0 3.2 0.00 0.00 0.00 33 1012.7
20260508212707 23 340 0.0 3.2 0.00 0.00 0.00 33 1012.9
20260508212206 22 340 0.0 3.2 0.00 0.00 0.00 35 1013.0
20260508211706 22 338 1.6 9.7 0.00 0.00 0.00 36 1013.1
20260508211204 21 336 3.2 11.3 0.00 0.00 0.00 35 1013.1
20260508210703 21 92 1.6 11.3 0.00 0.00 0.00 38 1013.1
20260508210158 22 305 1.6 6.4 0.00 0.00 0.00 36 1013.2
20260508205652 22 225 1.6 6.4 0.00 0.00 0.00 35 1013.3
20260508205145 22 155 1.6 6.4 0.00 0.00 0.00 38 1013.3
20260508204133 21 76 3.2 8.0 0.00 0.00 0.00 38 1013.4
20260508203627 21 90 3.2 8.0 0.00 0.00 0.00 39 1013.4
20260508203121 21 79 3.2 6.4 0.00 0.00 0.00 38 1013.6
20260508202616 21 317 3.2 8.0 0.00 0.00 0.00 38 1013.6
20260508202109 21 307 1.6 8.0 0.00 0.00 0.00 37 1013.6
20260508201603 20 71 1.6 8.0 0.00 0.00 0.00 39 1013.6
20260508201058 20 71 3.2 8.0 0.00 0.00 0.00 40 1013.7
20260508200552 20 67 3.2 8.0 0.00 0.00 0.00 41 1013.8
20260508200046 20 323 3.2 8.0 0.00 0.00 0.00 39 1013.9
20260508195540 20 346 3.2 8.0 0.00 0.00 0.00 40 1013.9
20260508195034 20 114 3.2 6.4 0.00 0.00 0.00 41 1013.9
20260508194527 19 107 3.2 14.5 0.00 0.00 0.00 42 1013.9
20260508194022 20 37 3.2 14.5 0.00 0.00 0.00 40 1014.1
20260508193516 20 96 1.6 4.8 0.00 0.00 0.00 42 1014.0
20260508193009 19 77 3.2 9.7 0.00 0.00 0.00 44 1014.1
20260508192503 19 76 3.2 9.7 0.00 0.00 0.00 42 1014.3
20260508191958 20 57 1.6 6.4 0.00 0.00 0.00 44 1014.3
20260508191451 19 205 1.6 6.4 0.00 0.00 0.00 43 1014.3
20260508190945 19 15 3.2 6.4 0.00 0.00 0.00 44 1014.3
20260508190439 19 12 3.2 9.7 0.00 0.00 0.00 44 1014.4
20260508185933 19 355 3.2 12.9 0.00 0.00 0.00 44 1014.4
20260508185428 19 72 3.2 12.9 0.00 0.00 0.00 46 1014.5
20260508184921 18 74 3.2 6.4 0.00 0.00 0.00 45 1014.5
20260508184416 18 75 3.2 6.4 0.00 0.00 0.00 44 1014.6
20260508183911 18 84 3.2 8.0 0.00 0.00 0.00 46 1014.6
20260508182858 18 76 3.2 8.0 0.00 0.00 0.00 48 1014.7
20260508181340 17 120 3.2 8.0 0.00 0.00 0.00 49 1015.1
20260508180833 17 49 3.2 12.9 0.00 0.00 0.00 49 1015.1
20260508180327 17 86 3.2 12.9 0.00 0.00 0.00 49 1015.1
20260508174820 17 16 3.2 11.3 0.00 0.00 0.00 49 1015.2
20260508174320 17 5 3.2 11.3 0.00 0.00 0.00 50 1015.2
20260508173820 16 58 3.2 11.3 0.00 0.00 0.00 51 1015.2
20260508172820 16 296 3.2 12.9 0.00 0.00 0.00 50 1015.4
20260508172322 16 355 3.2 8.0 0.00 0.00 0.00 49 1015.4
20260508171817 16 311 3.2 9.7 0.00 0.00 0.00 51 1015.4
20260508171316 16 44 3.2 9.7 0.00 0.00 0.00 50 1015.5
20260508170814 16 28 3.2 11.3 0.00 0.00 0.00 51 1015.7
20260508170313 16 310 3.2 11.3 0.00 0.00 0.00 50 1015.7
20260508165314 15 350 3.2 8.0 0.00 0.00 0.00 51 1015.8
20260508164813 15 10 3.2 9.7 0.00 0.00 0.00 52 1015.8
20260508164314 15 291 3.2 9.7 0.00 0.00 0.00 52 1015.7
20260508163812 15 267 3.2 8.0 0.00 0.00 0.00 53 1015.7
20260508163311 15 5 3.2 8.0 0.00 0.00 0.00 54 1015.7
20260508162808 15 234 1.6 4.8 0.00 0.00 0.00 54 1015.7
20260508162307 15 243 1.6 4.8 0.00 0.00 0.00 55 1015.7
20260508161807 14 242 1.6 4.8 0.00 0.00 0.00 55 1015.7
20260508160806 14 238 0.0 6.4 0.00 0.00 0.00 58 1015.8
20260508160302 14 239 1.6 6.4 0.00 0.00 0.00 59 1015.8
20260508155803 14 239 1.6 4.8 0.00 0.00 0.00 60 1015.9
20260508155305 13 239 1.6 8.0 0.00 0.00 0.00 61 1015.9
20260508154803 13 240 1.6 8.0 0.00 0.00 0.00 62 1015.9
20260508154301 13 240 0.0 6.4 0.00 0.00 0.00 65 1015.9
20260508153803 13 239 0.0 3.2 0.00 0.00 0.00 67 1015.9
20260508153258 12 239 0.0 3.2 0.00 0.00 0.00 69 1016.0
20260508152759 12 239 0.0 4.8 0.00 0.00 0.00 69 1016.0
20260508152257 12 239 1.6 4.8 0.00 0.00 0.00 70 1015.9
20260508151759 12 239 1.6 4.8 0.00 0.00 0.00 71 1015.9
20260508151257 12 239 1.6 6.4 0.00 0.00 0.00 73 1015.9
20260508150759 11 240 1.6 6.4 0.00 0.00 0.00 74 1015.9
20260508150258 11 235 1.6 14.5 0.00 0.00 0.00 77 1015.9
20260508145759 11 234 1.6 14.5 0.00 0.00 0.00 79 1016.0
20260508144754 11 236 0.0 0.0 0.00 0.00 0.00 82 1016.1
20260508143753 10 237 1.6 6.4 0.00 0.00 0.00 84 1016.1
20260508143254 10 238 0.0 6.4 0.00 0.00 0.00 84 1016.1
20260508142753 10 235 1.6 6.4 0.00 0.00 0.00 85 1016.1
20260508142251 10 234 1.6 6.4 0.00 0.00 0.00 86 1016.1
20260508141751 10 229 0.0 6.4 0.00 0.00 0.00 86 1016.1
20260508141251 10 227 0.0 6.4 0.00 0.00 0.00 87 1016.0
20260508140252 9 238 0.0 4.8 0.00 0.00 0.00 87 1016.1